Coleman, TX

9:49 PM CDT on August 31, 2016 (GMT -0500)
Coleman Municipal

Weather History for KCOM - April, 2013

Change the Weather History Date:

Thursday, April 11, 2013

  Actual Average (KABI) Record (KABI)
Temperature  
Mean Temperature 53 °F 63 °F  
Max Temperature 68 °F 76 °F 94 °F (1899)
Min Temperature 38 °F 51 °F 32 °F (1995)
Degree Days  
Heating Degree Days 12 5  
Month to date heating degree days 59  
Since 1 July heating degree days 2490  
Cooling Degree Days 0 3  
Month to date cooling degree days 25  
Year to date cooling degree days 59  
Growing Degree Days 3 (Base 50)    
Moisture  
Dew Point 31 °F    
Average Humidity 48    
Maximum Humidity 82    
Minimum Humidity 23    
Precipitation  
Precipitation 0.00 in 0.05 in 1.55 in (1923)
Month to date precipitation 0.50  
Year to date precipitation 4.62  
Sea Level Pressure  
Sea Level Pressure 29.90 in    
Wind  
Wind Speed 4 mph (NNE)    
Max Wind Speed 10 mph    
Max Gust Speed -    
Visibility 10 miles    
Events      
T = Trace of Precipitation, MM = Missing Value Source: NWS Daily Summary

Daily Weather History Graph

Daily Weather History Graph

Search for Another Location

Airport or City:

Trip Planner

Search our weather history database for the weather conditions in past years. The results will help you decide how hot, cold, wet, or windy it might be!

Date:

Astronomy

Apr. 11, 2013 Rise Set
Actual Time 7:13 AM CDT 8:04 PM CDT
Civil Twilight 6:48 AM CDT 8:29 PM CDT
Nautical Twilight 6:19 AM CDT 8:58 PM CDT
Astronomical Twilight 5:49 AM CDT 9:28 PM CDT
Moon 7:51 AM CDT (4/11) 9:33 PM CDT (4/11)
Length of Visible Light 13h 40m
Length of Day
12h 50m
New Moon, 2% of the Moon is Illuminated
Apr 11
New Moon
Apr 18
First Quarter
Apr 25
Full
May 2
Last Quarter
May 9
New

Hourly Weather History & Observations

Time (CDT) Temp. Windchill Dew Point Humidity Pressure Visibility Wind Dir Wind Speed Gust Speed Precip Events Conditions
12:15 AM 44.6 °F 40.7 °F 33.1 °F 64% 29.99 in 10.0 mi NE 6.9 mph - N/A   Clear
12:35 AM 44.6 °F 42.2 °F 33.1 °F 64% 30.01 in 10.0 mi NNE 4.6 mph - N/A   Clear
12:55 AM 44.4 °F 42.9 °F 33.1 °F 64% 30.02 in 10.0 mi East 3.5 mph - N/A   Scattered Clouds
1:15 AM 44.2 °F 41.0 °F 33.8 °F 67% 30.01 in 10.0 mi East 5.8 mph - N/A   Mostly Cloudy
1:35 AM 44.1 °F 40.8 °F 33.3 °F 66% 30.00 in 10.0 mi ENE 5.8 mph - N/A   Scattered Clouds
1:55 AM 43.9 °F 42.3 °F 32.9 °F 65% 30.01 in 10.0 mi ENE 3.5 mph - N/A   Clear
2:15 AM 43.7 °F - 33.3 °F 67% 30.00 in 10.0 mi Calm Calm - N/A   Clear
2:35 AM 43.2 °F - 33.4 °F 69% 30.00 in 10.0 mi Calm Calm - N/A   Clear
2:55 AM 43.2 °F - 33.8 °F 70% 29.99 in 10.0 mi Calm Calm - N/A   Clear
3:15 AM 42.8 °F - 34.5 °F 73% 29.96 in 10.0 mi Calm Calm - N/A   Clear
3:35 AM 42.6 °F 40.9 °F 33.4 °F 70% 29.96 in 10.0 mi North 3.5 mph - N/A   Clear
3:55 AM 41.9 °F 40.0 °F 33.8 °F 73% 29.96 in 10.0 mi NNW 3.5 mph - N/A   Clear
4:15 AM 41.5 °F 39.6 °F 33.4 °F 73% 29.95 in 10.0 mi NW 3.5 mph - N/A   Clear
4:35 AM 40.5 °F 37.3 °F 33.1 °F 75% 29.95 in 10.0 mi NW 4.6 mph - N/A   Clear
4:55 AM 40.1 °F 36.9 °F 33.1 °F 76% 29.95 in 10.0 mi NW 4.6 mph - N/A   Clear
5:15 AM 39.2 °F 35.0 °F 33.1 °F 79% 29.94 in 10.0 mi NW 5.8 mph - N/A   Clear
5:35 AM 39.6 °F 34.7 °F 32.5 °F 76% 29.94 in 10.0 mi NW 6.9 mph - N/A   Clear
5:55 AM 38.7 °F 35.2 °F 32.9 °F 80% 29.95 in 10.0 mi NW 4.6 mph - N/A   Clear
6:15 AM 38.3 °F 34.8 °F 32.9 °F 81% 29.95 in 10.0 mi NW 4.6 mph - N/A   Clear
6:35 AM 38.3 °F 33.2 °F 32.9 °F 81% 29.94 in 10.0 mi NW 6.9 mph - N/A   Clear
6:55 AM 38.1 °F 32.9 °F 32.9 °F 81% 29.95 in 10.0 mi NW 6.9 mph - N/A   Clear
7:15 AM 38.1 °F 34.6 °F 33.1 °F 82% 29.95 in 10.0 mi NW 4.6 mph - N/A   Clear
7:35 AM 38.5 °F 33.4 °F 33.1 °F 81% 29.95 in 10.0 mi NW 6.9 mph - N/A   Clear
7:55 AM 39.7 °F 36.5 °F 33.4 °F 78% 29.96 in 10.0 mi NW 4.6 mph - N/A   Clear
8:15 AM 41.2 °F 39.2 °F 33.8 °F 75% 29.96 in 10.0 mi NW 3.5 mph - N/A   Clear
8:35 AM 43.3 °F 40.7 °F 32.9 °F 67% 29.96 in 10.0 mi NNW 4.6 mph - N/A   Clear
8:55 AM 45.9 °F 42.9 °F 29.7 °F 53% 29.96 in 10.0 mi North 5.8 mph - N/A   Clear
9:15 AM 46.8 °F - 28.0 °F 48% 29.95 in 10.0 mi NE 10.4 mph - N/A   Clear
9:35 AM 47.5 °F - 26.4 °F 44% 29.95 in 10.0 mi NE 9.2 mph - N/A   Clear
9:55 AM 48.6 °F - 26.4 °F 42% 29.96 in 10.0 mi NE 6.9 mph - N/A   Clear
10:15 AM 49.5 °F - 25.9 °F 40% 29.96 in 10.0 mi NE 5.8 mph - N/A   Clear
10:35 AM 50.2 °F - 25.2 °F 38% 29.96 in 10.0 mi ENE 5.8 mph - N/A   Clear
10:55 AM 50.7 °F - 24.1 °F 35% 29.96 in 10.0 mi NE 6.9 mph - N/A   Clear
11:15 AM 51.8 °F - 25.5 °F 36% 29.95 in 10.0 mi ENE 3.5 mph - N/A   Clear
11:35 AM 53.8 °F - 25.5 °F 34% 29.95 in 10.0 mi NE 3.5 mph - N/A   Clear
12:15 PM 55.6 °F - 24.1 °F 30% 29.93 in 10.0 mi NNE 3.5 mph - N/A   Clear
12:35 PM 57.2 °F - 24.3 °F 28% 29.92 in 10.0 mi Calm Calm - N/A   Clear
12:55 PM 57.9 °F - 25.3 °F 29% 29.91 in 10.0 mi ENE 3.5 mph - N/A   Clear
1:15 PM 59.4 °F - 26.6 °F 29% 29.89 in 10.0 mi ESE 5.8 mph - N/A   Clear
1:35 PM 59.9 °F - 26.2 °F 28% 29.88 in 10.0 mi Calm Calm - N/A   Clear
1:55 PM 62.1 °F - 27.1 °F 27% 29.88 in 10.0 mi SSW 3.5 mph - N/A   Clear
2:15 PM 62.6 °F - 27.9 °F 27% 29.87 in 10.0 mi SW 9.2 mph - N/A   Clear
2:35 PM 62.4 °F - 27.1 °F 26% 29.86 in 10.0 mi WSW 4.6 mph - N/A   Clear
2:55 PM 63.7 °F - 27.0 °F 25% 29.85 in 10.0 mi Calm Calm - N/A   Clear
3:15 PM 64.2 °F - 28.2 °F 26% 29.85 in 10.0 mi WSW 3.5 mph - N/A   Clear
3:35 PM 65.1 °F - 28.8 °F 26% 29.84 in 10.0 mi South 5.8 mph - N/A   Clear
4:15 PM 66.7 °F - 28.9 °F 24% 29.83 in 10.0 mi WNW 4.6 mph - N/A   Clear
4:35 PM 67.3 °F - 29.8 °F 25% 29.80 in 10.0 mi NW 8.1 mph - N/A   Clear
4:55 PM 68.0 °F - 29.1 °F 23% 29.80 in 10.0 mi West 4.6 mph - N/A   Clear
5:15 PM 67.5 °F - 28.9 °F 24% 29.80 in 10.0 mi Calm Calm - N/A   Clear
5:35 PM 68.2 °F - 30.0 °F 24% 29.79 in 10.0 mi NW 3.5 mph - N/A   Clear
5:55 PM 68.2 °F - 30.0 °F 24% 29.78 in 10.0 mi Calm Calm - N/A   Clear
6:15 PM 67.5 °F - 28.8 °F 24% 29.79 in 10.0 mi Calm Calm - N/A   Clear
6:35 PM 67.6 °F - 30.0 °F 25% 29.79 in 10.0 mi ESE 3.5 mph - N/A   Clear
6:55 PM 67.5 °F - 30.0 °F 25% 29.80 in 10.0 mi Calm Calm - N/A   Clear
7:15 PM 66.6 °F - 30.4 °F 26% 29.80 in 10.0 mi Calm Calm - N/A   Clear
7:35 PM 65.1 °F - 31.8 °F 29% 29.80 in 10.0 mi ESE 3.5 mph - N/A   Clear
7:55 PM 62.1 °F - 32.2 °F 33% 29.80 in 10.0 mi ESE 4.6 mph - N/A   Clear
8:15 PM 60.3 °F - 32.0 °F 34% 29.81 in 10.0 mi ESE 4.6 mph - N/A   Clear
8:35 PM 58.6 °F - 32.4 °F 37% 29.82 in 10.0 mi ESE 4.6 mph - N/A   Clear
8:55 PM 57.2 °F - 32.0 °F 38% 29.83 in 10.0 mi ESE 8.1 mph - N/A   Clear
9:15 PM 56.5 °F - 32.4 °F 40% 29.84 in 10.0 mi ESE 3.5 mph - N/A   Clear
9:35 PM 56.5 °F - 32.2 °F 40% 29.85 in 10.0 mi SE 3.5 mph - N/A   Clear
9:55 PM 55.6 °F - 32.0 °F 41% 29.85 in 10.0 mi SSE 3.5 mph - N/A   Clear
10:15 PM 54.7 °F - 32.4 °F 43% 29.86 in 10.0 mi Calm Calm - N/A   Clear
10:35 PM 54.5 °F - 32.9 °F 44% 29.87 in 10.0 mi SSE 3.5 mph - N/A   Clear
10:55 PM 53.1 °F - 33.1 °F 47% 29.88 in 10.0 mi South 5.8 mph - N/A   Clear
11:15 PM 50.9 °F - 33.8 °F 52% 29.88 in 10.0 mi South 4.6 mph - N/A   Clear
11:35 PM 51.8 °F - 34.0 °F 51% 29.88 in 10.0 mi South 4.6 mph - N/A   Clear
11:55 PM 52.2 °F - 34.7 °F 51% 29.88 in 10.0 mi South 8.1 mph - N/A   Clear